EST,Max TemperatureF,Mean TemperatureF,Min TemperatureF,Max Dew PointF,MeanDew PointF,Min DewpointF,Max Humidity, Mean Humidity, Min Humidity, Max Sea Level PressureIn, Mean Sea Level PressureIn, Min Sea Level PressureIn, Max VisibilityMiles, Mean VisibilityMiles, Min VisibilityMiles, Max Wind SpeedMPH, Mean Wind SpeedMPH, Max Gust SpeedMPH,PrecipitationIn, CloudCover, Events, WindDirDegrees
2013-11-1,59,53,47,57,49,39,93,75,57,29.62,29.38,29.25,10,8,2,33,17,51,0.76,8,Rain,222
2013-11-2,47,39,30,42,36,28,100,88,76,29.90,29.70,29.58,10,5,0,13,6,20,0.27,8,Fog-Rain-Snow,311
2013-11-3,31,22,12,28,18,11,96,75,53,30.49,30.21,29.90,10,10,10,15,5,20,T,4,,15
2013-11-4,34,21,7,18,12,4,92,67,41,30.69,30.63,30.55,10,10,10,13,3,15,0.00,0,,61
2013-11-5,47,32,16,30,23,13,100,75,49,30.58,30.50,30.40,10,10,10,22,6,28,0.00,1,,218
2013-11-6,56,41,26,47,36,25,92,72,51,30.39,30.12,29.81,10,10,9,21,10,28,0.05,3,Rain,210
2013-11-7,51,40,28,50,38,24,100,89,78,29.88,29.77,29.68,10,7,1,23,8,36,0.50,8,Rain-Snow,246
2013-11-8,31,30,28,27,23,19,92,78,63,30.13,29.95,29.82,10,8,2,14,5,23,0.01,8,Snow,266
2013-11-9,36,28,19,31,25,18,92,72,51,30.19,30.00,29.82,10,6,1,12,4,16,0.05,6,Snow,227
2013-11-10,41,35,29,37,32,26,100,93,85,29.96,29.74,29.65,10,5,1,16,7,28,0.23,8,Rain-Snow,248
2013-11-11,35,29,22,32,27,18,100,89,78,30.08,29.91,29.78,10,6,1,18,9,26,0.10,8,Snow,243
2013-11-12,22,19,16,19,14,11,92,83,74,30.29,30.14,29.91,10,7,2,14,6,22,0.01,8,Snow,277
2013-11-13,29,20,11,24,15,8,88,78,67,30.33,30.20,30.01,10,9,4,23,9,30,T,7,Snow,235
2013-11-14,35,30,24,30,25,21,92,84,75,30.04,30.01,29.94,10,10,10,21,9,26,0.00,5,,228
2013-11-15,46,34,22,26,22,18,85,63,41,30.16,30.09,30.04,10,10,10,20,5,26,0.00,0,,228
2013-11-16,51,37,23,29,26,23,92,66,39,30.27,30.23,30.15,10,10,9,14,2,17,0.00,2,,222
2013-11-17,56,40,23,50,41,22,100,89,77,30.19,29.93,29.53,10,9,2,23,6,32,0.07,6,Rain,177
2013-11-18,56,44,31,52,36,24,93,78,62,29.64,29.49,29.35,10,7,1,29,14,43,0.63,8,Rain-Snow,236
2013-11-19,31,24,17,27,16,12,78,70,62,30.40,30.01,29.61,10,8,1,20,8,33,0.01,8,Snow,283
2013-11-20,34,20,5,16,10,2,96,66,36,30.63,30.55,30.34,10,10,9,6,1,9,0.00,1,,62
2013-11-21,40,23,5,26,14,2,92,60,27,30.60,30.47,30.31,10,10,10,16,3,22,0.00,3,,219
2013-11-22,39,35,31,39,34,27,100,88,75,30.29,29.99,29.80,10,4,0,16,3,29,0.20,8,Fog-Rain-Snow,239
2013-11-23,31,22,13,28,18,8,92,83,74,30.01,29.83,29.70,10,5,0,21,8,30,0.04,8,Fog-Snow,265
2013-11-24,14,9,4,9,2,-3,84,71,58,30.29,30.03,29.80,10,4,1,16,9,31,T,6,Snow,287
2013-11-25,27,12,-3,16,7,-6,95,75,55,30.37,30.22,30.08,10,10,9,18,8,23,0.00,4,,216
2013-11-26,31,28,25,29,23,11,92,71,50,30.18,30.05,29.83,10,6,1,18,7,26,0.16,8,Snow,203
2013-11-27,35,26,17,34,28,14,100,93,85,29.85,29.49,29.36,10,3,1,15,6,23,0.85,8,Rain-Snow,316
2013-11-28,17,7,-3,14,7,-8,91,76,61,30.43,29.95,29.56,10,4,1,16,6,26,T,7,Snow,267
2013-11-29,19,5,-9,8,-5,-13,95,75,54,30.76,30.57,30.36,10,10,10,7,1,9,0.00,3,,285
2013-11-30,24,6,-13,17,2,-18,92,77,62,30.76,30.56,30.25,10,10,10,18,4,26,0.00,3,,219